Lexington Weather

Lexington, Massachusetts, USA

75°F
9/22/2021 1:16pm 
  • Lexington Conditions: Overcast
  • Temperature: 75.0°F / 23.9°C 
  • Dew Point: 68.4°FDecreased 0.3°Fsince last hour.
  • Relative Humidity: 80%Decreased 1.0% since last hour.
  • Wind: Wind from SSW SSW 2 mph, 10-min avg: 3 mph, gust: 9 mph
  • Barometer: 30.10 inFalling 0.02  inHg/hr Falling Slowly
  • Visibility: 10 miles
  • Rain Today: 0.00 in
  •   

Regional Weather Roundup
for Boston / Norton, MA

        
000
ASUS41 KBOX 191004
RWRBOX

REGIONAL WEATHER ROUNDUP
NATIONAL WEATHER SERVICE BOSTON/NORTON MA
600 AM EDT SUN SEP 19 2021

NOTE:  "FAIR" INDICATES FEW OR NO CLOUDS BELOW 12,000 FEET WITH NO 
SIGNIFICANT WEATHER AND/OR OBSTRUCTIONS TO VISIBILITY.

MAZALL-191100-
EASTERN MASSACHUSETTS
  
CITY           SKY/WX    TMP DP  RH WIND       PRES   REMARKS
BOSTON         MOCLDY    66  57  72 N10       30.07R                  
BEVERLY        CLOUDY    63  59  87 N7        30.07R                  
LAWRENCE       CLOUDY    62  59  90 N5        30.10R                  
BEDFORD        CLOUDY    61  58  90 N3        30.07R                  
BLUE HILL      NOT AVBL                                               
NORWOOD        CLOUDY    64  61  90 NW5       30.06R                  
MARSHFIELD     CLOUDY    64  59  82 VRB8G17   30.05R                  
PLYMOUTH       CLOUDY    63  59  87 N10       30.05R                  
TAUNTON        MOCLDY    61  58  90 NW3       30.05R                  
NEW BEDFORD    MOCLDY    64  61  90 N5        30.04R                  
$$

MAZALL-191100-
CAPE COD AND THE ISLANDS
  
CITY           SKY/WX    TMP DP  RH WIND       PRES   REMARKS
FALMOUTH       CLOUDY    64  61  88 N9        30.03R                  
HYANNIS        LGT RAIN  66  62  87 N14G21    30.00R                  
CHATHAM        CLOUDY    65  59  81 VRB7      30.02R                  
PROVINCETOWN   PTCLDY    64  59  83 N17       30.04R                  
NANTUCKET      CLOUDY    69  64  84 N14       30.00R                  
MARTHAS VNYRD  PTCLDY    65  64  97 N12       30.02R                  
$$
 
MAZALL-191100-
CENTRAL AND WESTERN MASSACHUSETTS
  
CITY           SKY/WX    TMP DP  RH WIND       PRES   REMARKS
WORCESTER      CLOUDY    60  51  72 N8        30.10R                  
FITCHBURG      CLOUDY    61  54  77 NW5       30.10R                  
ORANGE         PTCLDY    53  52  96 CALM      30.13R                  
SPRINGFIELD    CLEAR     58  51  78 N3        30.09R                  
WESTFIELD      CLEAR     54  54 100 CALM      30.10R                  
NORTH ADAMS    CLEAR     51  49  92 CALM      30.15R                  
PITTSFIELD     CLEAR     50  48  93 CALM      30.13R                  
$$
 
RIZALL-191100-
RHODE ISLAND
  
CITY           SKY/WX    TMP DP  RH WIND       PRES   REMARKS
PROVIDENCE     CLOUDY    66  61  84 N10       30.06R                  
NEWPORT        CLOUDY    65  63  93 N15       30.04R                  
BLOCK ISLAND   MOCLDY    65  64  97 N8        30.04R                  
SMITHFIELD     CLOUDY    61  59  93 N8        30.08R                  
WESTERLY       CLEAR     63  63 100 N8        30.04R                  
$$
 
CTZALL-191100-
CONNECTICUT
  
CITY           SKY/WX    TMP DP  RH WIND       PRES   REMARKS
BRADLEY INTL   PTCLDY    58  55  90 N8        30.10R                  
HARTFORD       CLEAR     63  55  75 N8        30.09R                  
BRIDGEPORT     CLEAR     64  55  72 N8        30.08R                  
DANBURY        CLEAR     61  54  77 CALM      30.12R                  
GROTON         PTCLDY    65  61  87 N10       30.04R                  
NEW HAVEN      CLEAR     66  59  78 N9        30.07R                  
CHESTER        FAIR      63  55  77 N9G15     30.07S                  
MERIDEN        CLEAR     63  57  81 N7        30.09R                  
WILLIMANTIC    CLEAR     60  55  83 N6        30.08R                  
OXFORD         CLEAR     58  53  84 N8        30.12R                  
$$

MEZ002-015-021-024-NHZ003-005-008-011-012-014-VTZ005-008-191100-
NORTHERN NEW ENGLAND
  
CITY           SKY/WX    TMP DP  RH WIND       PRES   REMARKS
PORTLAND ME    CLEAR     54  51  90 N8        30.10R                  
BANGOR ME      PTCLDY    51  46  83 N10       30.10R                  
CONCORD NH     CLEAR     54  49  83 NW5       30.11R                  
MANCHESTER NH  MOCLDY    63  50  62 N6        30.08R                  
NASHUA NH      PTCLDY    59  57  93 NW6       30.10R                  
PORTSMOUTH NH  MOCLDY    61  52  74 N6        30.10R                  
JAFFREY NH     MOCLDY    52  52 100 CALM      30.12R                  
KEENE NH       PTCLDY    51  51 100 CALM      30.14R                  
BURLINGTON VT  PTCLDY    49  47  93 CALM      30.19R                  
MT. WASHINGTON PTCLDY    43   5  21 N25         N/A                   
$$

NYZ052-076-191100-
EASTERN NEW YORK
  
CITY           SKY/WX    TMP DP  RH WIND       PRES   REMARKS
ALBANY         PTCLDY    51  51 100 CALM      30.16R                  
NEW YORK CITY  PTCLDY    67  55  65 N8        30.09R                  
$$
 
ANZALL-191100-
MARINE OBSERVATIONS
  
STATION/POSITION TIME  TEMP    WIND        PRES    VSBY  WAVE
                       AIR SEA DIR/SP/G                  HT/PER
                 (UTC) (F)     (DEG/KT/KT) (MB)    (MI)  (FT/S)
BOSTON BUOY      0940      65  360/ 17/ 21 1018.1R
BUZZARDS BAY     0900          360/ 14/ 16 1017.1R
NANTUCKET SOUND  0940   69 72  360/ 16/ 19 1016.1R
MASS BAY-STELLWA 0904   65      10/ 17/ 21 1016.8R  1 7/8
ISLE OF SHOALS   0900   63      10/ 17/ 20 1017.1R
S OF BLOCK IS    0926      71                N/A           4/ 8
$$

......................KEY.........................
  SKY/WX - SKY CONDITION/PRESENT WEATHER
  TMP    - TEMPERATURE IN FAHRENHEIT
  DWPT   - DEWPOINT IN FAHRENHEIT
  RH     - RELATIVE HUMIDITY IN PERCENT
  WIND   - DIRECTION AND SPEED IN MPH
  PRES   - MEAN SEA LEVEL PRESSURE IN INCHES OF HG
  WCI    - WIND CHILL INDEX
  VSB    - VISIBILITY IN MILES
  HX     - HEAT INDEX
  TC     - TEMPERATURE IN CELSIUS
  VRB    - VARIABLE WIND DIRECTION
  N/A    - NOT AVAILABLE
  
      

Other recent Regional Weather Roundups

Wed Sep 22, 1:04pm

Wed Sep 22, 12:05pm

Wed Sep 22, 11:04am

Wed Sep 22, 10:04am

Wed Sep 22, 9:04am

Wed Sep 22, 8:04am

Wed Sep 22, 7:04am

Wed Sep 22, 6:04am

Wed Sep 22, 5:04am

Wed Sep 22, 4:04am

Wed Sep 22, 3:04am

Wed Sep 22, 2:04am

Wed Sep 22, 1:04am

Wed Sep 22, 12:04am

Tue Sep 21, 11:04pm

Tue Sep 21, 10:04pm

Tue Sep 21, 9:04pm

Tue Sep 21, 8:04pm

Tue Sep 21, 7:04pm

Tue Sep 21, 6:04pm

Tue Sep 21, 5:04pm

Tue Sep 21, 4:04pm

Tue Sep 21, 3:04pm

Tue Sep 21, 2:04pm

Tue Sep 21, 1:04pm

Tue Sep 21, 12:04pm

Tue Sep 21, 11:04am

Tue Sep 21, 10:04am

Tue Sep 21, 9:04am

Tue Sep 21, 8:04am

Tue Sep 21, 7:04am

Tue Sep 21, 6:04am

Tue Sep 21, 5:04am

Tue Sep 21, 4:04am

Tue Sep 21, 3:04am

Tue Sep 21, 2:04am

Tue Sep 21, 1:04am

Tue Sep 21, 12:04am

Mon Sep 20, 11:04pm

Mon Sep 20, 10:04pm

Mon Sep 20, 9:04pm

Mon Sep 20, 8:04pm

Mon Sep 20, 7:04pm

Mon Sep 20, 6:04pm

Mon Sep 20, 5:04pm

Mon Sep 20, 4:04pm

Mon Sep 20, 3:04pm

Mon Sep 20, 2:04pm

Mon Sep 20, 1:04pm

Mon Sep 20, 12:04pm

Mon Sep 20, 11:04am

Mon Sep 20, 10:04am

Mon Sep 20, 9:04am

Mon Sep 20, 7:04am

Mon Sep 20, 6:04am

Mon Sep 20, 5:04am

Mon Sep 20, 4:04am

Mon Sep 20, 3:04am

Mon Sep 20, 2:04am

Mon Sep 20, 1:04am

Mon Sep 20, 12:04am

Sun Sep 19, 11:04pm

Sun Sep 19, 10:04pm

Sun Sep 19, 9:04pm

Sun Sep 19, 8:04pm

Sun Sep 19, 7:04pm

Sun Sep 19, 6:04pm

Sun Sep 19, 5:04pm

Sun Sep 19, 4:04pm

Sun Sep 19, 3:04pm

Sun Sep 19, 2:05pm

Sun Sep 19, 1:04pm

Sun Sep 19, 12:04pm

Sun Sep 19, 11:04am

Sun Sep 19, 10:05am

Sun Sep 19, 9:04am

Sun Sep 19, 8:04am

Sun Sep 19, 7:04am

Sun Sep 19, 5:04am

Sun Sep 19, 4:04am

Sun Sep 19, 3:04am

Sun Sep 19, 2:04am

Sun Sep 19, 1:04am

Sun Sep 19, 12:04am

Sat Sep 18, 11:05pm

Sat Sep 18, 10:04pm

Sat Sep 18, 9:04pm

Sat Sep 18, 8:04pm

Sat Sep 18, 7:04pm

Sat Sep 18, 6:04pm

Sat Sep 18, 5:04pm

Sat Sep 18, 4:04pm

Sat Sep 18, 3:04pm

Sat Sep 18, 2:04pm

Sat Sep 18, 1:04pm

Sat Sep 18, 12:04pm

Sat Sep 18, 11:04am

Sat Sep 18, 10:04am

Sat Sep 18, 9:04am

Sat Sep 18, 8:04am

Sat Sep 18, 7:04am

Sat Sep 18, 6:04am

Sat Sep 18, 5:04am

Sat Sep 18, 4:04am

Sat Sep 18, 3:04am

Sat Sep 18, 2:04am

Sat Sep 18, 1:04am

Sat Sep 18, 12:04am

Fri Sep 17, 11:04pm

Fri Sep 17, 10:04pm

Fri Sep 17, 9:04pm

Fri Sep 17, 8:04pm

Fri Sep 17, 7:04pm

Fri Sep 17, 6:04pm

Fri Sep 17, 5:04pm

Fri Sep 17, 4:04pm

Fri Sep 17, 3:04pm

Fri Sep 17, 2:04pm

Fri Sep 17, 1:04pm

Fri Sep 17, 12:05pm

Fri Sep 17, 11:04am

Fri Sep 17, 10:04am

Fri Sep 17, 9:04am

Fri Sep 17, 8:04am

Fri Sep 17, 7:04am

Fri Sep 17, 6:04am

Fri Sep 17, 5:04am

Fri Sep 17, 4:04am

Fri Sep 17, 3:04am

Fri Sep 17, 2:04am

Fri Sep 17, 1:04am

Fri Sep 17, 12:04am

Thu Sep 16, 11:04pm

Thu Sep 16, 10:04pm

Thu Sep 16, 9:04pm

Thu Sep 16, 8:04pm

Thu Sep 16, 7:04pm

Thu Sep 16, 6:04pm

Thu Sep 16, 5:04pm

Thu Sep 16, 4:04pm

Thu Sep 16, 3:04pm

Thu Sep 16, 2:04pm

Thu Sep 16, 1:05pm

Thu Sep 16, 12:04pm

Thu Sep 16, 11:05am

Thu Sep 16, 10:05am

Thu Sep 16, 9:04am

Thu Sep 16, 8:04am

Thu Sep 16, 7:04am

Thu Sep 16, 6:04am

Thu Sep 16, 5:04am

Thu Sep 16, 4:04am

Thu Sep 16, 3:04am

Thu Sep 16, 2:04am

Thu Sep 16, 1:04am

Thu Sep 16, 12:04am

Wed Sep 15, 11:04pm

Wed Sep 15, 10:04pm

Wed Sep 15, 9:04pm

Wed Sep 15, 8:04pm

Wed Sep 15, 7:04pm

Wed Sep 15, 6:04pm

Wed Sep 15, 5:05pm

Wed Sep 15, 4:04pm

Wed Sep 15, 3:04pm

Wed Sep 15, 2:04pm

Wed Sep 15, 1:04pm

Meta data:

ID: a5760f8b-f87e-458b-bf97-502331ab22be
Link: https://api.weather.gov/products/a5760f8b-f87e-458b-bf97-502331ab22be